Flag for Vietnam Weather past 2 weeks in Hanoi, Vietnam

Now
82 °F

Clear.


Feels Like: 91 °F
Forecast: 74 / 92 °F
Wind: 3 mph from North

Location: Ha Noi Airport

Current Time: Oct 1, 2014 at 12:05:43 AM

Latest Report: Sep 30, 2014 at 11:30 PM


Visibility: 5 mi

Pressure: 29.89 "Hg

Humidity: 84%

Dew point: 77 °F

Location of HanoiLocation

Historic Weather in Hanoi — Graph

°F

Hanoi temperature yesterday

Maximum temperature yesterday: 93 °F (at 2:00 PM)
Minimum temperature yesterday: 77 °F (at 6:00 AM)
Average temperature yesterday: 85 °F

Past Weeks' High & Low Weather Summary

 TemperatureHumidityPressure
High93 °F (Sep 25, 1:30 PM)100% (Sep 16, 1:30 AM)29.95 "Hg (Sep 16, 1:30 AM)
Low73 °F (Sep 22, 5:00 AM)41% (Sep 24, 2:00 PM)29.12 "Hg (Sep 17, 12:30 AM)
Average83 °F84%29.78 "Hg
* Reported Sep 15 11:00 PM — Sep 30 11:00 PM, Hanoi, Weather by CustomWeather, © 2014

Note: Actual official high and low records may vary slightly from our data, if they occured in-between our weather recording intervals... More about our weather records

Advertising

Hanoi weather history for previous 24 hours

 ConditionsComfort  
Time TempWeatherWind HumidityBarometerVisibility
11:00 PM
Sep 30
82 °FClear.3 mph84%29.89 "Hg5 mi
10:30 PM82 °FClear.6 mph79%29.89 "Hg5 mi
10:00 PM84 °FClear.7 mph74%29.89 "Hg3 mi
9:30 PM84 °FClear.8 mph79%29.89 "Hg4 mi
9:00 PM84 °FClear.8 mph84%29.89 "Hg3 mi
8:30 PM84 °FClear.9 mph84%29.86 "Hg4 mi
8:00 PM86 °FClear.8 mph70%29.86 "Hg4 mi
7:30 PM86 °FClear.5 mph75%29.83 "Hg1 mi
7:00 PM86 °FClear.5 mph66%29.83 "Hg1 mi
6:00 PM90 °FHaze.6 mph59%29.80 "Hg3 mi
5:30 PM90 °FClear.6 mph55%29.80 "Hg4 mi
5:00 PM91 °FSunny.2 mph52%29.80 "Hg10 mi
4:00 PM91 °FClear.3 mph59%29.80 "Hg5 mi
3:30 PM93 °FBroken clouds.3 mph53%29.80 "HgN/A
3:00 PM93 °FBroken clouds.5 mph53%29.83 "HgN/A
2:00 PM93 °FScattered clouds.5 mph53%29.83 "HgN/A
1:30 PM91 °FScattered clouds.3 mph52%29.86 "HgN/A
1:00 PM90 °FScattered clouds.3 mph59%29.86 "HgN/A
12:30 PM91 °FScattered clouds.3 mph59%29.89 "Hg6 mi
12:00 PM91 °FScattered clouds.2 mph59%29.89 "HgN/A
11:30 AM88 °FScattered clouds.2 mph66%29.92 "Hg6 mi
11:00 AM91 °FScattered clouds.3 mph63%29.92 "Hg5 mi
10:30 AM90 °FScattered clouds.5 mph67%29.95 "HgN/A
10:00 AM90 °FScattered clouds.3 mph63%29.95 "Hg6 mi
9:30 AM90 °FScattered clouds.3 mph63%29.95 "HgN/A
9:00 AM88 °FPassing clouds.3 mph70%29.95 "HgN/A
8:30 AM86 °FPassing clouds.2 mph84%29.92 "Hg3 mi
8:00 AM84 °FClear.2 mph89%29.92 "Hg3 mi
7:30 AM82 °FFog.3 mph94%29.92 "Hg3 mi
7:00 AM81 °FFog.1 mph94%29.92 "Hg2 mi
6:30 AM79 °FFog.2 mph94%29.89 "Hg2 mi
6:00 AM77 °FFog.3 mph94%29.89 "Hg2 mi
5:30 AM79 °FClear.5 mph100%29.89 "Hg3 mi
5:00 AM81 °FClear.1 mph94%29.89 "Hg4 mi
4:30 AM79 °FClear.2 mph94%29.86 "Hg3 mi
4:00 AM81 °FClear.2 mph94%29.86 "Hg4 mi
3:30 AM81 °FClear.No wind94%29.86 "Hg3 mi
3:00 AM81 °FClear.1 mph94%29.86 "Hg4 mi
2:30 AM79 °FClear.No wind94%29.86 "Hg3 mi
2:00 AM81 °FClear.1 mph100%29.86 "Hg3 mi
1:30 AM81 °FClear.1 mph94%29.89 "Hg4 mi
1:00 AM79 °FClear.2 mph100%29.89 "Hg4 mi
12:30 AM79 °FClear.3 mph100%29.89 "Hg4 mi
12:00 AM81 °FClear.5 mph94%29.89 "Hg4 mi
Weather by CustomWeather, © 2014

See weather overviewHow to use our weather pages